Location: Lynch Observatory
(39.9540°N, 75.1861°W)
Time: 10:19:13
(UTC-04:00)

DOVE 4 - Pass Details

Date: 03 May 2024
Orbit: 581 x 778 km, 97.7° (Epoch: 26 May)

Event Time Altitude Azimuth Distance (km) Brightness Sun altitude
Rises 21:25:09 0° 33° (NNE) 3,029 ? -15.3°
Reaches altitude 10° 21:28:12 10° 55° (NE) 2,152 ? -15.8°
Enters shadow 21:30:18 15° 81° (E) 1,836 ? -16.1°
